CAPE
1741 1813 1759 1536 1452 1474 1444 1399 1362 1330 1338 1356 1295 1240 1248 1222 1206 1262 1305 1342 1330 1172 972 834 872 756 589 472 369 367 365 0 0 0 0 0 0 0 0 0 0 0 0 0 0 0 0 0 7 25 14 68 64 57 40 19 13 12 1 0 0 0 0 0 0 0 0 0 0 0 0 0 0 0 0 0 0 0 0 0 0 0 0 0 0
1794 1789 1776 1584 1514 1491 1452 1419 1405 1407 1416 1407 1381 1271 1281 1284 1327 1387 1390 1420 1369 1180 1055 914 808 616 498 493 443 416 332 0 0 0 0 0 0 0 0 0 0 0 0 0 0 0 7 7 11 31 73 60 41 33 28 17 9 1 0 0 0 0 0 0 0 0 0 0 0 0 0 0 0 0 0 0 0 0 0 0 0 0 0 0 0
1771 1772 1743 1635 1548 1515 1472 1493 1502 1468 1439 1457 1374 1321 1359 1405 1437 1471 1454 1424 1352 1158 1067 971 769 589 575 559 509 465 314 0 0 0 0 0 0 0 0 0 0 0 0 0 0 0 9 3 10 35 15 0 3 23 26 14 2 0 0 0 0 0 0 0 0 0 0 0 0 0 0 0 0 0 0 0 0 0 0 0 0 0 0 0 0
1782 1736 1746 1644 1564 1538 1556 1567 1561 1553 1530 1474 1352 1359 1422 1451 1485 1508 1442 1386 1398 1305 1150 1009 744 640 610 605 581 542 325 0 0 0 0 0 0 0 0 0 0 0 0 0 0 0 0 0 0 0 0 4 27 35 9 0 0 0 0 0 0 0 0 0 0 0 0 0 0 0 0 0 0 0 0 0 0 0 0 0 0 0 0 0 0
1795 1741 1729 1632 1572 1562 1602 1638 1658 1628 1564 1458 1311 1346 1461 1521 1543 1519 1482 1485 1492 1306 1151 970 800 689 625 678 635 589 333 29 0 0 0 0 0 0 0 0 0 0 0 0 0 0 0 0 0 0 0 24 46 7 0 0 0 0 0 0 0 0 0 0 0 0 0 0 0 0 0 0 0 0 0 0 0 0 0 0 0 0 0 0 0
1757 1712 1722 1659 1593 1594 1627 1689 1725 1692 1586 1426 1302 1356 1493 1575 1561 1547 1518 1553 1518 1268 1112 957 817 736 705 705 663 523 334 0 0 0 0 0 0 0 0 0 0 0 0 0 0 0 0 0 0 0 31 51 12 1 0 0 0 0 0 0 0 0 0 0 0 0 0 0 0 0 0 0 0 0 0 0 0 0 0 0 0 0 0 0 0
1723 1694 1706 1693 1639 1608 1661 1722 1753 1772 1627 1436 1350 1439 1552 1560 1534 1563 1579 1515 1434 1100 1032 951 875 804 730 689 566 408 328 0 0 0 0 0 0 0 0 0 0 0 0 0 0 0 0 0 0 47 62 29 10 7 0 0 0 0 0 0 0 0 0 0 0 0 0 0 0 0 0 0 0 0 0 0 0 0 0 0 0 0 0 0 0
1712 1695 1686 1703 1682 1665 1696 1723 1801 1780 1650 1457 1492 1541 1490 1368 1369 1452 1481 1473 1321 1046 1004 960 914 864 761 653 488 406 317 0 0 0 0 0 0 0 0 0 0 0 0 0 0 0 0 0 52 76 64 37 17 12 4 0 0 0 0 0 0 0 0 0 0 0 0 0 0 0 0 0 0 0 0 0 0 0 0 0 0 0 0 0 0
1697 1677 1699 1705 1690 1732 1732 1755 1765 1764 1635 1492 1596 1555 1367 1223 1198 1253 1388 1394 1120 971 971 1079 1044 996 731 572 455 435 342 0 0 0 0 0 0 0 0 0 0 0 0 0 0 0 0 6 68 108 87 44 20 9 0 0 0 0 0 0 0 0 0 0 0 0 0 0 0 0 0 0 0 0 0 0 0 0 0 0 0 0 0 0 0
1658 1641 1690 1714 1700 1732 1779 1747 1720 1644 1470 1440 1634 1610 1465 1421 1294 1264 1290 1268 1041 923 946 1109 1102 923 736 556 453 479 467 204 0 0 0 0 0 0 0 0 0 0 0 0 0 0 0 28 88 104 87 42 17 3 0 0 0 0 0 0 0 0 0 0 0 0 0 0 0 0 0 0 0 0 0 0 0 0 0 0 0 0 0 0 0
1704 1668 1650 1673 1671 1671 1680 1607 1507 1448 1411 1489 1617 1691 1561 1539 1439 1305 1181 1142 1012 945 963 1149 958 803 651 552 498 542 577 368 153 134 123 22 0 0 0 0 0 0 0 0 0 19 33 6 0 2 26 30 11 0 0 0 0 0 0 0 0 0 0 0 0 0 0 0 0 0 0 0 0 0 0 0 0 0 0 0 0 0 0 0 0
1744 1717 1642 1626 1625 1636 1599 1554 1548 1490 1437 1469 1598 1710 1661 1651 1538 1303 1214 1079 1010 960 1034 1087 909 671 609 523 467 518 606 456 170 147 116 0 94 176 182 88 6 4 9 15 4 14 19 0 0 3 12 16 9 0 0 0 0 0 0 0 0 0 0 0 0 0 0 0 0 0 0 0 0 0 0 0 0 0 0 0 0 0 0 0 0
1773 1750 1708 1683 1664 1649 1610 1580 1582 1540 1479 1484 1538 1618 1729 1819 1552 1339 1243 1020 973 921 1069 1065 697 556 580 576 529 534 593 427 203 156 48 0 0 168 219 236 219 230 46 0 25 29 8 4 11 14 9 10 2 0 0 0 0 0 0 0 0 0 0 0 0 0 0 0 0 0 0 0 0 0 0 0 0 0 0 0 0 0 0 0 0
1790 1797 1789 1742 1698 1660 1636 1607 1607 1586 1536 1509 1570 1663 1806 1813 1605 1512 1322 782 868 1033 1164 1079 770 561 521 531 553 552 577 431 242 156 138 0 0 61 210 270 274 245 123 13 18 13 6 10 23 15 12 9 3 0 0 0 0 0 0 0 0 0 0 0 0 0 0 0 0 0 0 0 0 0 0 0 0 0 0 0 0 0 0 0 0
1815 1836 1832 1789 1727 1696 1657 1630 1616 1622 1564 1529 1573 1680 1784 1743 1686 1632 1429 1263 813 889 1133 1074 888 601 495 519 462 394 472 410 281 190 92 0 0 6 201 268 290 86 27 21 27 29 25 32 24 9 7 7 3 0 0 0 0 0 0 0 0 0 0 0 0 0 0 0 0 0 0 0 0 0 0 0 0 0 0 0 0 0 0 0 0
1802 1821 1832 1816 1784 1736 1674 1627 1622 1605 1578 1559 1594 1603 1567 1681 1785 1690 1419 1375 1114 805 1024 1055 876 596 523 515 452 406 488 445 322 220 171 15 0 114 234 280 294 51 21 5 10 36 27 8 5 8 2 6 7 1 0 0 0 0 0 0 0 0 0 0 0 0 0 0 0 0 0 0 0 0 0 0 0 0 0 0 0 0 0 0 0
1790 1807 1820 1829 1802 1744 1669 1620 1616 1583 1564 1524 1624 1626 1623 1609 1572 1562 1582 1402 1173 944 1029 1138 942 658 560 517 428 428 501 478 358 254 222 216 219 236 280 322 165 88 48 32 43 40 15 0 0 4 5 3 5 1 0 0 0 0 0 0 0 0 0 0 0 0 0 0 0 0 0 0 0 0 0 0 0 0 0 0 0 0 0 0 0
1749 1766 1782 1779 1769 1716 1666 1616 1592 1602 1540 1409 1355 1499 1602 1632 1687 1763 1710 1515 1160 800 919 1282 1075 478 400 382 414 422 452 437 364 319 301 288 255 260 304 74 75 64 59 54 32 10 0 0 2 3 5 6 2 3 0 0 0 0 0 0 0 0 0 0 0 0 0 0 0 0 0 0 0 0 0 0 0 0 0 0 0 0 0 0 0
1695 1711 1716 1702 1672 1650 1631 1600 1587 1594 1556 1454 1404 1428 1525 1568 1725 1747 1424 1067 835 750 813 997 951 639 419 267 222 327 339 339 295 250 244 234 215 106 49 92 73 58 29 11 7 8 0 0 0 5 5 7 2 5 0 0 0 0 0 0 0 0 0 0 0 0 0 0 0 0 0 0 0 0 0 0 0 0 0 0 0 0 0 0 0
1666 1645 1617 1596 1602 1598 1576 1545 1533 1477 1307 1183 1292 1437 1601 1758 1810 1534 1314 1096 964 892 872 968 796 599 362 270 269 331 369 341 267 238 178 184 211 199 149 45 40 29 44 78 25 2 1 5 6 14 4 4 1 0 0 0 0 0 0 0 0 0 0 0 0 0 0 0 0 0 0 0 0 0 0 0 0 0 0 0 0 0 0 0 0
1567 1538 1545 1554 1523 1516 1504 1472 1452 1475 1366 1174 1106 1226 1427 1460 1448 1402 1346 1002 822 791 704 890 541 531 478 293 220 200 336 346 292 258 237 210 198 160 98 167 186 148 106 27 0 18 1 10 12 9 2 1 0 0 0 0 0 0 0 0 0 0 0 0 0 0 0 0 0 0 0 0 0 0 0 0 0 0 0 0 0 0 0 0 0
1672 1605 1547 1477 1434 1419 1460 1450 1480 1495 1537 1446 1288 1256 1325 1346 1267 1286 1405 1249 952 780 606 648 672 510 527 123 127 60 367 280 288 201 167 148 150 140 64 210 116 84 51 33 35 25 1 1 5 5 0 0 0 0 0 3 0 0 0 0 0 0 0 0 0 0 0 0 0 0 0 0 0 0 0 0 0 0 0 0 0 0 0 0 0
1472 1424 1397 1343 1385 1441 1457 1499 1534 1570 1640 1571 1394 1201 1111 1212 1346 1357 1330 1280 1292 1165 840 652 711 534 427 222 186 213 68 120 268 138 167 178 166 153 162 197 56 88 39 24 7 1 0 2 3 3 0 0 0 0 0 0 0 0 0 0 0 0 0 0 0 0 0 0 0 0 0 0 0 0 0 0 0 0 0 0 0 0 0 0 0
1370 1335 1292 1255 1346 1412 1510 1548 1541 1590 1612 1552 1438 1247 1118 1101 1205 1247 1174 1156 1069 1016 1035 825 736 546 342 73 104 84 56 85 122 171 176 226 203 202 164 108 71 26 6 4 4 3 1 6 0 0 3 3 3 1 0 0 1 1 0 0 0 0 0 0 0 0 0 0 0 0 0 0 0 0 0 0 0 0 0 0 0 0 0 0 0
1054 1077 1130 1190 1368 1470 1510 1525 1511 1463 1497 1517 1404 1185 1038 1119 1239 1238 1132 1168 1006 1039 1019 836 643 625 446 118 83 62 73 115 133 196 195 142 169 180 136 0 0 0 1 1 3 7 5 0 0 0 5 6 5 1 2 7 4 0 0 0 0 0 0 0 0 0 0 0 0 0 0 0 0 0 0 0 0 0 0 0 0 0 0 0 0
1125 1107 1075 1173 1359 1480 1503 1515 1485 1393 1385 1480 1325 997 833 710 954 1277 1290 1145 1221 1169 992 908 757 626 502 396 116 73 87 150 162 143 152 157 123 97 72 50 42 35 18 6 3 1 0 0 0 1 5 4 5 5 7 8 4 0 0 0 0 0 0 0 0 0 0 0 0 0 0 0 0 0 0 0 0 0 0 0 0 0 0 0 0
1429 1293 1287 1388 1237 1302 1400 1393 1332 1288 1217 1359 1313 1048 761 680 628 688 911 994 916 856 867 911 763 556 83 291 394 115 154 167 134 168 143 131 140 92 60 8 42 62 46 10 0 0 0 0 0 0 4 2 2 6 4 2 0 0 0 0 0 0 0 0 0 0 0 0 0 0 0 0 0 0 0 0 0 0 0 0 0 0 0 0 0
1558 1454 1379 1377 1361 1184 1204 1192 1104 1192 1239 1267 1314 1229 1083 984 794 694 668 653 655 685 783 773 581 54 76 116 222 293 174 139 172 154 144 150 148 99 68 0 42 50 14 2 0 0 0 0 0 0 2 5 5 8 6 1 1 3 0 0 0 0 0 0 0 0 0 0 0 0 0 0 0 0 0 0 0 0 0 0 0 0 0 0 0
1673 1563 1420 1375 1399 1211 1088 1147 1080 1044 1155 1144 1145 1230 1195 958 881 870 770 854 323 112 126 134 135 137 123 141 183 319 315 310 279 219 203 146 192 127 112 102 0 0 2 0 0 0 0 0 2 3 3 7 7 3 2 5 9 6 0 0 0 0 0 0 0 0 0 0 0 0 0 0 0 0 0 0 0 0 0 0 0 0 0 0 0
1552 1476 1418 1394 1312 1252 1109 1080 1027 1082 1190 1167 1125 1059 895 778 745 725 637 565 548 326 287 201 126 129 85 186 347 410 450 380 300 227 156 171 109 85 80 110 3 80 0 0 0 0 0 4 8 9 7 7 8 10 8 8 6 1 0 0 0 0 0 0 0 0 0 0 0 0 0 0 0 0 0 0 0 0 0 0 0 0 0 0 0
1462 1525 1491 1450 1340 1069 1053 1008 938 897 938 1050 1122 1232 1155 765 708 617 398 315 288 297 298 272 245 227 194 271 291 303 286 182 120 91 111 110 75 0 0 7 63 0 0 0 6 4 8 9 11 8 5 2 2 6 7 6 2 0 0 0 0 0 0 0 0 0 0 0 0 0 0 0 0 0 0 0 0 0 0 0 0 0 0 0 0
1411 1460 1476 1370 1207 1094 829 515 724 872 949 928 840 868 886 833 724 522 313 289 277 265 229 225 204 200 198 169 178 180 147 104 102 131 143 127 116 47 70 67 0 0 0 0 0 0 0 4 10 10 11 10 6 8 6 2 0 0 0 0 0 0 0 0 0 0 0 0 0 0 0 0 0 0 0 0 0 0 0 0 0 0 0 0 0
1348 1343 1241 1068 1034 820 555 544 622 908 816 619 702 884 969 723 613 418 338 303 283 273 269 263 266 188 139 147 150 202 190 136 90 70 92 107 116 116 89 16 8 0 0 0 0 0 0 4 8 7 3 4 10 8 5 2 1 0 0 0 0 0 0 0 0 0 0 0 0 0 0 0 0 0 0 0 0 0 0 0 0 0 0 0 0
1039 1088 997 790 767 755 517 361 445 607 616 546 624 770 816 662 500 490 427 424 376 357 296 256 160 184 199 206 244 218 169 126 100 0 0 0 46 66 52 0 0 0 0 0 0 8 9 8 7 6 3 2 4 4 4 4 4 1 0 0 0 0 0 0 1 1 0 0 0 0 0 0 0 0 0 0 0 0 0 0 0 0 0 0 0
646 642 538 446 524 550 490 376 388 384 392 599 675 708 592 612 566 547 536 477 446 351 204 169 217 260 268 214 192 100 1 2 2 0 0 0 0 17 0 0 0 0 0 0 3 7 2 2 2 2 1 3 6 7 6 3 0 0 0 0 0 0 2 3 4 5 8 1 0 0 0 0 0 0 0 0 0 0 0 0 0 0 0 0 0
286 292 306 187 186 249 296 346 110 90 118 421 538 623 615 593 535 260 280 491 514 540 494 451 431 415 344 257 234 102 1 20 5 0 0 5 6 2 0 0 0 0 0 3 6 2 2 5 5 5 2 2 1 2 1 0 0 0 0 0 0 3 2 2 3 4 3 2 3 1 0 0 0 0 0 0 0 0 0 0 0 0 0 0 0
137 0 0 33 87 200 250 24 7 292 436 420 228 268 521 392 394 464 467 468 562 603 536 485 424 380 304 246 173 2 8 34 62 0 0 26 18 8 0 0 0 0 0 2 4 6 8 9 3 1 2 3 4 3 2 2 1 0 1 0 0 0 1 1 3 0 0 3 8 0 0 0 0 0 0 0 0 0 0 0 0 0 0 0 0
32 0 52 104 188 243 326 368 361 360 383 350 188 169 212 452 452 405 359 428 475 537 511 386 276 254 257 197 108 14 89 91 64 31 12 22 6 7 0 0 0 0 2 2 4 6 4 3 4 3 3 4 5 6 3 2 2 2 3 0 0 0 1 5 4 7 8 10 2 0 0 0 0 0 0 0 0 0 0 0 0 0 0 0 0
15 18 85 145 132 162 237 375 434 435 367 282 344 423 430 475 501 410 311 276 359 384 421 429 379 356 350 283 124 164 86 159 100 53 42 46 18 0 0 0 0 0 0 0 0 0 0 2 5 2 2 2 6 6 5 5 3 2 4 3 4 6 12 9 2 1 0 1 0 0 0 0 0 0 0 0 0 0 0 0 0 0 0 0 0
1 103 124 118 100 167 185 363 352 293 320 352 418 456 494 494 435 413 450 298 290 307 341 343 308 275 280 258 277 231 222 219 214 55 41 19 0 0 2 0 0 0 0 0 0 0 0 0 2 3 3 6 9 7 8 4 0 0 0 0 0 0 2 9 17 14 11 10 9 3 0 0 0 0 0 0 0 0 0 0 0 0 0 0 0
39 149 63 195 243 184 211 268 304 328 346 371 438 499 567 586 467 405 394 365 356 363 369 356 319 260 254 170 183 153 116 76 69 61 30 1 0 0 0 0 0 0 0 0 0 0 0 0 0 0 1 4 7 5 3 1 0 0 0 0 0 3 1 0 0 0 4 14 16 7 0 0 0 0 0 0 0 0 0 0 0 0 0 0 0
177 124 130 226 227 261 286 270 276 250 213 262 366 444 454 449 348 338 353 361 364 364 424 406 341 364 291 235 253 206 60 66 57 18 3 0 0 0 0 0 0 0 2 7 8 4 0 0 0 0 0 1 1 0 0 0 0 0 0 0 0 2 9 10 4 11 16 21 18 6 0 0 0 0 0 0 0 0 0 0 0 0 0 0 0
338 224 201 151 217 304 319 275 233 224 210 190 184 193 216 228 247 214 256 300 333 344 320 275 224 177 166 166 147 106 65 31 6 4 1 0 0 0 5 2 0 0 6 10 7 1 0 0 0 0 0 0 0 0 0 0 0 0 0 0 1 4 8 5 11 15 8 8 19 9 0 0 0 0 0 0 0 0 0 0 0 0 0 0 0
253 296 216 67 122 237 288 237 213 241 278 266 244 243 189 208 192 227 230 217 182 179 204 206 160 118 62 41 31 36 25 15 11 4 2 0 0 9 16 2 4 5 2 3 0 0 0 0 0 0 0 0 0 0 0 0 0 0 0 0 0 1 1 2 4 5 1 0 8 4 0 0 0 0 0 0 0 0 0 0 0 0 0 0 0
235 279 244 246 193 102 6 16 22 120 137 121 71 16 45 58 87 169 200 131 108 133 169 163 140 43 28 9 3 3 4 10 11 6 0 1 8 12 7 5 4 0 0 0 0 0 0 0 0 0 0 0 0 0 0 0 0 0 0 2 3 1 0 1 2 4 3 0 0 0 0 0 0 0 0 0 0 0 0 0 0 0 0 0 0
91 44 126 200 299 238 173 69 0 14 13 4 2 0 0 4 9 51 94 88 66 68 58 34 27 41 29 17 22 4 1 5 7 4 5 4 8 9 5 0 1 0 1 2 3 4 3 2 1 0 0 0 0 0 0 0 0 0 3 6 4 0 0 0 0 1 1 0 0 0 0 0 0 0 0 0 0 0 0 0 0 0 0 0 0
130 117 17 202 165 140 122 111 95 50 1 0 0 0 0 67 0 0 0 1 54 14 19 18 19 22 21 11 29 7 0 7 6 8 4 10 8 9 1 5 6 8 12 15 11 8 6 6 2 0 0 0 0 0 0 0 0 2 10 9 4 0 0 0 0 0 0 0 0 0 0 0 0 0 0 0 0 0 0 0 0 0 0 0 0
64 68 87 99 135 74 132 87 27 15 4 2 3 1 0 0 0 3 8 8 6 3 0 0 0 0 0 0 0 0 0 1 1 1 2 3 1 0 4 12 18 17 13 11 6 1 3 3 1 0 0 0 0 0 0 0 1 4 5 1 0 0 0 0 0 0 0 0 0 0 0 0 0 0 0 0 0 0 0 0 0 0 0 0 0
8 13 17 28 28 17 8 0 8 9 9 10 8 8 10 5 6 3 2 2 5 18 6 0 0 0 0 1 0 1 4 7 6 11 12 10 4 1 11 22 22 17 12 12 12 8 4 1 0 0 0 0 0 0 0 0 0 0 1 0 0 0 0 0 0 0 0 0 0 0 0 0 0 0 0 0 0 0 0 0 0 0 0 0 0
5 6 6 6 4 2 0 0 2 6 6 5 6 7 6 3 1 0 2 5 6 13 34 39 20 19 10 9 2 6 11 8 7 8 13 17 13 11 17 20 15 9 4 2 7 10 8 5 1 0 0 0 0 0 0 0 0 0 0 0 0 0 0 0 0 0 0 0 0 0 0 0 0 0 0 0 0 0 0 0 0 0 0 0 0
18 10 6 3 0 0 0 0 1 9 8 4 4 4 5 1 0 4 6 3 1 2 4 14 8 5 4 2 4 8 9 7 8 9 12 11 10 14 17 14 9 2 0 0 1 3 3 4 3 3 3 2 1 0 0 0 0 0 0 0 0 0 0 0 0 0 0 0 0 0 0 0 0 0 0 0 0 0 0 0 0 0 0 0 0
Wind_Speed
32 32 36 36 37 35 32 30 29 29 30 29 28 26 27 27 27 26 26 24 26 27 28 29 29 30 31 30 30 29 28 nan nan nan nan nan nan nan nan nan nan nan nan nan nan nan nan nan nan nan nan nan nan nan nan nan nan nan nan nan nan nan nan nan nan nan nan nan nan nan nan nan nan nan nan nan nan nan nan nan nan nan nan nan nan
31 33 36 37 36 35 33 31 30 29 30 29 26 25 26 27 27 27 26 26 27 28 29 29 30 31 31 31 30 30 28 nan nan nan nan nan nan nan nan nan nan nan nan nan nan nan nan nan nan nan nan nan nan nan nan nan nan nan nan nan nan nan nan nan nan nan nan nan nan nan nan nan nan nan nan nan nan nan nan nan nan nan nan nan nan
29 33 36 36 35 35 33 30 29 29 30 28 24 24 26 27 26 27 27 27 27 28 30 31 31 31 32 32 31 30 28 nan nan nan nan nan nan nan nan nan nan nan nan nan nan nan nan nan nan nan nan nan nan nan nan nan nan nan nan nan nan nan nan nan nan nan nan nan nan nan nan nan nan nan nan nan nan nan nan nan nan nan nan nan nan
30 32 34 35 36 34 31 29 29 29 29 26 24 24 27 27 26 25 27 28 29 29 30 32 32 32 33 33 32 31 29 nan nan nan nan nan nan nan nan nan nan nan nan nan nan nan nan nan nan nan nan nan nan nan nan nan nan nan nan nan nan nan nan nan nan nan nan nan nan nan nan nan nan nan nan nan nan nan nan nan nan nan nan nan nan
31 33 35 36 35 32 30 29 28 28 27 25 24 26 27 27 25 26 27 28 29 31 30 31 33 32 32 33 34 31 28 nan nan nan nan nan nan nan nan nan nan nan nan nan nan nan nan nan nan nan nan nan nan nan nan nan nan nan nan nan nan nan nan nan nan nan nan nan nan nan nan nan nan nan nan nan nan nan nan nan nan nan nan nan nan
32 35 37 36 32 30 29 28 27 27 27 25 25 27 28 27 25 24 27 30 30 30 31 31 32 32 33 33 32 30 29 nan nan nan nan nan nan nan nan nan nan nan nan nan nan nan nan nan nan nan nan nan nan nan nan nan nan nan nan nan nan nan nan nan nan nan nan nan nan nan nan nan nan nan nan nan nan nan nan nan nan nan nan nan nan
34 37 36 32 29 27 27 26 26 27 26 25 25 27 28 27 25 25 27 30 31 30 30 31 31 33 33 33 32 30 29 nan nan nan nan nan nan nan nan nan nan nan nan nan nan nan nan nan nan nan nan nan nan nan nan nan nan nan nan nan nan nan nan nan nan nan nan nan nan nan nan nan nan nan nan nan nan nan nan nan nan nan nan nan nan
36 36 33 27 24 24 25 27 27 27 26 26 26 27 28 28 26 26 28 29 30 31 31 32 33 33 33 33 32 31 30 nan nan nan nan nan nan nan nan nan nan nan nan nan nan nan nan nan nan nan nan nan nan nan nan nan nan nan nan nan nan nan nan nan nan nan nan nan nan nan nan nan nan nan nan nan nan nan nan nan nan nan nan nan nan
35 32 27 22 21 23 26 28 28 27 27 26 26 27 27 28 28 28 28 29 30 30 31 33 35 34 34 34 33 31 30 nan nan nan nan nan nan nan nan nan nan nan nan nan nan nan nan nan nan 36 nan nan nan nan nan nan nan nan nan nan nan nan nan nan nan nan nan nan nan nan nan nan nan nan nan nan nan nan nan nan nan nan nan nan nan
30 26 21 19 22 25 27 28 27 27 27 25 26 27 28 29 29 29 29 30 31 32 32 32 34 35 36 34 32 31 29 28 nan nan nan nan nan nan nan nan nan nan nan nan nan nan nan nan nan 36 nan nan nan nan nan nan nan nan nan nan nan nan nan nan nan nan nan nan nan nan nan nan nan nan nan nan nan nan nan nan nan nan nan nan nan
24 21 19 21 24 26 27 27 27 26 26 27 27 28 29 30 30 30 31 31 32 33 32 33 34 35 35 34 32 30 29 28 32 33 34 nan nan nan nan nan nan nan nan nan nan nan nan nan nan nan nan nan nan nan nan nan nan nan nan nan nan nan nan nan nan nan nan nan nan nan nan nan nan nan nan nan nan nan nan nan nan nan nan nan nan
21 20 21 24 26 26 26 27 26 26 28 28 28 29 31 32 31 30 32 32 32 32 32 33 35 37 34 32 31 30 29 29 33 34 34 nan nan 31 31 nan nan nan nan nan nan nan nan nan nan nan nan nan nan nan nan nan nan nan nan nan nan nan nan nan nan nan nan nan nan nan nan nan nan nan nan nan nan nan nan nan nan nan nan nan nan
23 23 24 25 26 26 26 26 25 27 28 30 30 31 32 32 31 31 32 33 34 32 32 34 37 37 35 33 31 30 28 30 33 34 nan nan nan 34 32 34 35 35 nan nan nan nan nan nan nan nan nan nan nan nan nan nan nan nan nan nan nan nan nan nan nan nan nan nan nan nan nan nan nan nan nan nan nan nan nan nan nan nan nan nan nan
27 26 26 26 27 27 26 25 25 27 30 32 33 32 32 31 30 30 32 36 34 33 33 34 36 37 34 33 31 30 30 31 34 33 33 nan nan nan 34 35 35 36 37 nan nan nan nan nan nan nan nan nan nan nan nan nan nan nan nan nan nan nan nan nan nan nan nan nan nan nan nan nan nan nan nan nan nan nan nan nan nan nan nan nan nan
29 29 29 28 28 28 26 25 25 27 30 33 33 32 32 32 31 32 33 35 35 34 34 34 33 36 35 32 31 30 28 34 34 34 nan nan nan nan 35 35 35 nan nan nan nan nan nan nan nan nan nan nan nan nan nan nan nan nan nan nan nan nan nan nan nan nan nan nan nan nan nan nan nan nan nan nan nan nan nan nan nan nan nan nan nan
32 33 32 31 29 27 26 26 27 29 31 33 33 33 32 31 31 34 36 35 34 34 33 32 35 36 36 34 32 30 30 34 33 33 34 nan nan 35 35 36 35 nan nan nan nan nan nan nan nan nan nan nan nan nan nan nan nan nan nan nan nan nan nan nan nan nan nan nan nan nan nan nan nan nan nan nan nan nan nan nan nan nan nan nan nan
33 35 34 34 32 29 28 28 28 29 32 34 33 33 33 32 34 37 38 36 35 34 34 33 34 37 39 36 34 31 30 30 31 33 35 38 37 35 36 35 33 nan nan nan nan nan nan nan nan nan nan nan nan nan nan nan nan nan nan nan nan nan nan nan nan nan nan nan nan nan nan nan nan nan nan nan nan nan nan nan nan nan nan nan nan
36 37 36 36 34 33 31 31 31 30 32 33 33 32 34 36 37 39 37 36 34 34 36 36 37 38 40 38 34 31 28 27 30 31 35 38 38 38 35 nan nan nan nan nan nan nan nan nan nan nan nan nan nan nan nan nan nan nan nan nan nan nan nan nan nan nan nan nan nan nan nan nan nan nan nan nan nan nan nan nan nan nan nan nan nan
38 37 37 38 38 36 35 34 34 33 31 32 34 35 36 38 40 39 37 37 36 38 39 41 40 40 39 39 38 34 30 27 28 31 34 37 38 36 nan nan nan nan nan nan nan nan nan nan nan nan nan nan nan nan nan nan nan nan nan nan nan nan nan nan nan nan nan nan nan nan nan nan nan nan nan nan nan nan nan nan nan nan nan nan nan
36 37 41 43 43 41 39 37 35 32 32 34 37 38 42 44 42 40 41 39 37 37 39 41 43 41 42 42 38 34 31 26 24 30 33 35 37 34 31 nan nan nan nan nan nan nan nan nan nan nan nan nan nan nan nan nan nan nan nan nan nan nan nan nan nan nan nan nan nan nan nan nan nan nan nan nan nan nan nan nan nan nan nan nan nan
42 40 41 43 44 43 42 40 36 32 33 36 39 41 43 44 43 42 40 38 39 40 42 43 45 44 42 41 39 34 29 26 24 31 33 35 35 35 nan 34 36 38 40 nan nan nan nan nan nan nan nan nan nan nan nan nan nan nan nan nan nan nan nan nan nan nan nan nan nan nan nan nan nan nan nan nan nan nan nan nan nan nan nan nan nan
44 43 41 40 42 44 43 40 37 34 34 38 41 43 44 44 43 41 39 39 40 40 41 43 45 45 42 39 39 nan 31 25 26 27 31 33 34 36 nan 34 38 nan nan nan nan nan nan nan nan nan nan nan nan nan nan nan nan nan nan nan nan nan nan nan nan nan nan nan nan nan nan nan nan nan nan nan nan nan nan nan nan nan nan nan nan
47 45 43 41 41 42 43 41 37 36 36 39 42 46 46 44 42 41 41 40 39 38 39 42 46 47 44 40 39 38 nan 24 27 27 28 32 35 36 38 38 nan nan nan nan nan nan nan nan nan nan nan nan nan nan nan nan nan nan nan nan nan nan nan nan nan nan nan nan nan nan nan nan nan nan nan nan nan nan nan nan nan nan nan nan nan
50 47 43 41 41 40 41 41 39 37 37 41 45 47 44 42 42 41 41 41 38 37 38 42 45 45 43 nan 40 nan nan nan 25 30 30 32 34 37 38 40 nan nan nan nan nan nan nan nan nan nan nan nan nan nan nan nan nan nan nan nan nan nan nan nan nan nan nan nan nan nan nan nan nan nan nan nan nan nan nan nan nan nan nan nan nan
49 46 41 39 39 39 41 41 39 37 38 41 45 45 44 42 42 41 42 40 37 36 37 39 40 38 38 37 nan nan nan 26 26 28 32 33 36 37 37 nan nan nan nan nan nan nan nan nan nan nan nan nan nan nan nan nan nan nan nan nan nan nan nan nan nan nan nan nan nan nan nan nan nan nan nan nan nan nan nan nan nan nan nan nan nan
46 46 44 38 33 36 38 39 39 39 40 40 42 42 43 42 42 41 40 38 36 36 37 36 35 34 35 33 31 nan nan 27 27 28 29 32 33 nan nan nan nan nan nan nan nan nan nan nan nan nan nan nan nan nan nan nan nan nan nan nan nan nan nan nan nan nan nan nan nan nan nan nan nan nan nan nan nan nan nan nan nan nan nan nan nan
48 46 40 33 33 36 38 37 37 39 40 41 41 40 42 42 40 38 37 38 38 38 38 36 33 34 nan 30 28 27 26 25 27 29 31 32 32 nan nan nan nan nan nan nan nan nan nan nan nan nan nan nan nan nan nan nan nan nan nan nan nan nan nan nan nan nan nan nan nan nan nan nan nan nan nan nan nan nan nan nan nan nan nan nan nan
45 40 37 37 38 38 39 39 36 33 36 41 42 42 42 41 40 37 36 39 41 40 37 33 33 nan nan 29 27 25 25 25 27 30 32 34 36 nan nan nan nan nan nan nan nan nan nan nan nan nan nan nan nan nan nan nan nan nan nan nan nan nan nan nan nan nan nan nan nan nan nan nan nan nan nan nan nan nan nan nan nan nan nan nan nan
41 39 38 39 38 39 40 37 34 34 36 40 42 44 43 40 39 38 40 41 39 39 35 31 30 30 31 28 27 25 26 26 25 31 36 38 41 41 40 40 nan nan nan nan nan nan nan nan nan nan nan nan nan nan nan nan nan nan nan nan nan nan nan nan nan nan nan nan nan nan nan nan nan nan nan nan nan nan nan nan nan nan nan nan nan
37 36 37 37 39 41 42 42 40 39 39 42 46 50 52 47 41 40 39 35 37 36 37 33 31 31 nan 28 28 29 27 27 38 41 41 42 43 nan nan 45 nan nan nan nan nan nan nan nan nan nan nan nan nan nan nan nan nan nan nan nan nan nan nan nan nan nan nan nan nan nan nan nan nan nan nan nan nan nan nan nan nan nan nan nan nan
33 35 36 36 37 38 41 45 45 45 45 45 46 47 48 50 49 46 43 41 40 37 34 38 37 32 32 32 29 33 41 43 43 nan 44 44 nan nan nan nan nan nan nan nan nan nan nan nan nan nan nan nan nan nan nan nan nan nan nan nan nan nan nan nan nan nan nan nan nan nan nan nan nan nan nan nan nan nan nan nan nan nan nan nan nan
34 34 34 36 38 42 44 46 46 48 48 46 44 43 44 44 44 44 42 40 39 37 36 37 37 36 34 35 36 36 38 41 44 44 45 47 47 nan nan nan nan nan nan nan nan nan nan nan nan nan nan nan nan nan nan nan nan nan nan nan nan nan nan nan nan nan nan nan nan nan nan nan nan nan nan nan nan nan nan nan nan nan nan nan nan
36 36 38 43 47 48 46 45 44 47 48 47 44 41 39 37 37 38 40 39 36 34 35 37 37 37 38 38 39 39 40 43 nan nan nan 46 47 47 nan nan nan nan nan nan nan nan nan nan nan nan nan nan nan nan nan nan nan nan nan nan nan nan nan nan nan nan nan nan nan nan nan nan nan nan nan nan nan nan nan nan nan nan nan nan nan
38 40 41 42 45 46 45 45 45 43 41 41 40 36 34 32 33 35 36 34 36 37 38 36 36 38 38 41 42 45 46 47 47 nan nan nan nan nan nan nan nan nan nan nan nan nan nan nan nan nan nan nan nan nan nan nan nan nan nan nan nan nan nan nan nan nan nan nan nan nan nan nan nan nan nan nan nan nan nan nan nan nan nan nan nan
42 43 45 44 44 46 47 47 47 45 39 35 34 32 32 32 32 33 33 33 32 32 32 34 35 38 39 39 43 nan nan nan nan nan nan nan nan nan nan nan nan nan nan nan nan nan nan nan nan nan nan nan nan nan nan nan nan nan nan nan nan nan nan nan nan nan nan nan nan nan nan nan nan nan nan nan nan nan nan nan nan nan nan nan nan
47 46 43 43 44 45 47 47 46 nan 37 32 30 31 32 33 32 32 35 36 35 36 36 36 36 36 41 42 44 45 nan nan nan nan nan nan nan nan nan nan nan nan nan nan nan nan nan nan nan nan nan nan nan nan nan nan nan nan nan nan nan nan nan nan nan nan nan nan nan nan nan nan nan nan nan nan nan nan nan nan nan nan nan nan nan
44 nan nan nan nan 41 43 nan nan 45 41 36 33 33 33 35 35 36 35 35 35 36 37 39 41 43 43 42 43 nan nan nan nan nan nan nan nan nan nan nan nan nan nan nan nan nan nan nan nan nan nan nan nan nan nan nan nan nan nan nan nan nan nan nan nan nan nan nan nan nan nan nan nan nan nan nan nan nan nan nan nan nan nan nan nan
nan nan nan 42 40 39 40 43 47 47 42 36 33 33 33 33 33 34 35 34 36 37 39 39 41 43 44 44 45 nan nan nan nan nan nan nan nan nan nan nan nan nan nan nan nan nan nan nan nan nan nan nan nan nan nan nan nan nan nan nan nan nan nan nan nan nan nan nan nan nan nan nan nan nan nan nan nan nan nan nan nan nan nan nan nan
nan nan nan 43 39 37 38 40 41 40 38 36 35 35 34 34 34 34 35 36 38 40 41 43 43 43 45 48 49 51 nan 49 46 nan nan nan nan nan nan nan nan nan nan nan nan nan nan nan nan nan nan nan nan nan nan nan nan nan nan nan nan nan nan nan nan nan nan nan nan nan nan nan nan nan nan nan nan nan nan nan nan nan nan nan nan
nan 37 39 40 37 37 36 35 35 35 34 35 36 35 35 34 34 35 37 40 41 43 44 44 44 45 48 49 51 50 49 46 45 nan nan nan nan nan nan nan nan nan nan nan nan nan nan nan nan nan nan nan nan nan nan nan nan nan nan nan nan nan nan nan nan nan nan nan nan nan nan nan nan nan nan nan nan nan nan nan nan nan nan nan nan
nan 34 nan 30 31 32 31 32 33 34 35 37 36 35 35 37 38 39 41 43 44 45 45 45 46 48 48 47 48 47 45 nan nan nan nan nan nan nan nan nan nan nan nan nan nan nan nan nan nan nan nan nan nan nan nan nan nan nan nan nan nan nan nan nan nan nan nan nan nan nan nan nan nan nan nan nan nan nan nan nan nan nan nan nan nan
26 24 24 25 27 28 28 31 34 37 38 37 37 37 38 38 39 40 43 44 45 46 47 46 46 46 45 46 45 44 nan nan nan nan nan nan nan nan nan nan nan nan nan nan nan nan nan nan nan nan nan nan nan nan nan nan nan nan nan nan nan nan nan nan nan nan nan nan nan nan nan nan nan nan nan nan nan nan nan nan nan nan nan nan nan
18 19 21 23 25 26 28 30 32 34 35 36 37 39 40 40 41 43 44 45 45 44 44 44 44 44 43 42 43 42 nan nan nan nan nan nan nan nan nan nan nan nan nan nan nan nan nan nan nan nan nan nan nan nan nan nan nan nan nan nan nan nan nan nan nan nan nan nan nan nan nan nan nan nan nan nan nan nan nan nan nan nan nan nan nan
19 21 23 nan 27 29 30 31 33 35 35 37 38 39 39 41 41 42 42 42 41 40 41 43 44 43 nan nan nan nan nan nan nan nan nan nan nan nan nan nan nan nan nan nan nan nan nan nan nan nan nan nan nan nan nan nan nan nan nan nan nan nan nan nan nan nan nan nan nan nan nan nan nan nan nan nan nan nan nan nan nan nan nan nan nan
21 21 24 28 30 31 nan nan nan 35 37 37 nan nan nan nan nan 39 39 40 40 41 41 42 42 nan nan nan nan nan nan nan nan nan nan nan nan nan nan nan nan nan nan nan nan nan nan nan nan nan nan nan nan nan nan nan nan nan nan nan nan nan nan nan nan nan nan nan nan nan nan nan nan nan nan nan nan nan nan nan nan nan nan nan nan
nan nan 25 28 30 32 33 nan nan nan nan nan nan nan nan nan nan nan nan nan nan nan nan nan nan nan nan nan nan nan nan nan nan nan nan nan nan nan nan nan nan nan nan nan nan nan nan nan nan nan nan nan nan nan nan nan nan nan nan nan nan nan nan nan nan nan nan nan nan nan nan nan nan nan nan nan nan nan nan nan nan nan nan nan nan
26 26 nan 28 29 31 33 33 nan nan nan nan nan nan nan nan nan nan nan nan nan nan nan nan nan nan nan nan nan nan nan nan nan nan nan nan nan nan nan nan nan nan nan nan nan nan nan nan nan nan nan nan nan nan nan nan nan nan nan nan nan nan nan nan nan nan nan nan nan nan nan nan nan nan nan nan nan nan nan nan nan nan nan nan nan
nan nan nan nan 30 nan 33 nan nan nan nan nan nan nan nan nan nan nan nan nan nan nan nan nan nan nan nan nan nan nan nan nan nan nan nan nan nan nan nan nan nan nan nan nan nan nan nan nan nan nan nan nan nan nan nan nan nan nan nan nan nan nan nan nan nan nan nan nan nan nan nan nan nan nan nan nan nan nan nan nan nan nan nan nan nan
nan nan nan nan nan nan nan nan nan nan nan nan nan nan nan nan nan nan nan nan nan nan nan nan nan nan nan nan nan nan nan nan nan nan nan nan nan nan nan nan nan nan nan nan nan nan nan nan nan nan nan nan nan nan nan nan nan nan nan nan nan nan nan nan nan nan nan nan nan nan nan nan nan nan nan nan nan nan nan nan nan nan nan nan nan
nan nan nan nan nan nan nan nan nan nan nan nan nan nan nan nan nan nan nan nan nan nan nan nan nan nan nan nan nan nan nan nan nan nan nan nan nan nan nan nan nan nan nan nan nan nan nan nan nan nan nan nan nan nan nan nan nan nan nan nan nan nan nan nan nan nan nan nan nan nan nan nan nan nan nan nan nan nan nan nan nan nan nan nan nan
nan nan nan nan nan nan nan nan nan nan nan nan nan nan nan nan nan nan nan nan nan nan nan nan nan nan nan nan nan nan nan nan nan nan nan nan nan nan nan nan nan nan nan nan nan nan nan nan nan nan nan nan nan nan nan nan nan nan nan nan nan nan nan nan nan nan nan nan nan nan nan nan nan nan nan nan nan nan nan nan nan nan nan nan nan
Wind_Direction
269 265 263 266 270 274 277 279 280 275 277 281 286 291 292 292 292 291 286 286 284 285 286 286 287 285 284 284 285 287 289 nan nan nan nan nan nan nan nan nan nan nan nan nan nan nan nan nan nan nan nan nan nan nan nan nan nan nan nan nan nan nan nan nan nan nan nan nan nan nan nan nan nan nan nan nan nan nan nan nan nan nan nan nan nan
269 266 263 266 271 273 274 273 272 272 276 278 284 289 291 292 292 288 290 286 287 288 287 284 284 284 284 284 286 287 290 nan nan nan nan nan nan nan nan nan nan nan nan nan nan nan nan nan nan nan nan nan nan nan nan nan nan nan nan nan nan nan nan nan nan nan nan nan nan nan nan nan nan nan nan nan nan nan nan nan nan nan nan nan nan
270 265 264 266 270 269 270 271 271 274 276 276 284 289 288 289 289 291 289 286 286 287 286 285 285 284 283 284 286 289 292 nan nan nan nan nan nan nan nan nan nan nan nan nan nan nan nan nan nan nan nan nan nan nan nan nan nan nan nan nan nan nan nan nan nan nan nan nan nan nan nan nan nan nan nan nan nan nan nan nan nan nan nan nan nan
266 268 268 268 269 268 271 271 274 274 277 277 285 285 285 287 288 289 288 285 287 283 284 285 284 284 284 284 288 291 292 nan nan nan nan nan nan nan nan nan nan nan nan nan nan nan nan nan nan nan nan nan nan nan nan nan nan nan nan nan nan nan nan nan nan nan nan nan nan nan nan nan nan nan nan nan nan nan nan nan nan nan nan nan nan
266 268 268 269 269 270 272 273 276 278 277 275 282 282 284 286 286 288 285 285 286 284 282 282 283 284 284 287 289 293 297 nan nan nan nan nan nan nan nan nan nan nan nan nan nan nan nan nan nan nan nan nan nan nan nan nan nan nan nan nan nan nan nan nan nan nan nan nan nan nan nan nan nan nan nan nan nan nan nan nan nan nan nan nan nan
267 268 267 268 270 274 274 275 280 280 277 274 279 281 282 284 286 284 286 287 286 286 286 284 285 287 286 289 291 291 294 nan nan nan nan nan nan nan nan nan nan nan nan nan nan nan nan nan nan nan nan nan nan nan nan nan nan nan nan nan nan nan nan nan nan nan nan nan nan nan nan nan nan nan nan nan nan nan nan nan nan nan nan nan nan
264 266 268 269 268 274 276 278 276 274 272 271 271 276 281 285 287 286 283 286 288 287 285 285 283 285 285 286 287 290 293 nan nan nan nan nan nan nan nan nan nan nan nan nan nan nan nan nan nan nan nan nan nan nan nan nan nan nan nan nan nan nan nan nan nan nan nan nan nan nan nan nan nan nan nan nan nan nan nan nan nan nan nan nan nan
264 267 269 269 270 275 275 273 271 269 265 265 270 276 281 285 286 282 282 286 288 288 288 287 284 282 283 285 286 288 289 nan nan nan nan nan nan nan nan nan nan nan nan nan nan nan nan nan nan nan nan nan nan nan nan nan nan nan nan nan nan nan nan nan nan nan nan nan nan nan nan nan nan nan nan nan nan nan nan nan nan nan nan nan nan
263 266 268 270 272 272 269 267 267 266 265 265 269 275 280 283 281 279 282 283 283 287 286 286 285 283 279 281 284 285 288 nan nan nan nan nan nan nan nan nan nan nan nan nan nan nan nan nan nan 307 nan nan nan nan nan nan nan nan nan nan nan nan nan nan nan nan nan nan nan nan nan nan nan nan nan nan nan nan nan nan nan nan nan nan nan
264 265 266 267 266 267 268 267 267 265 265 266 269 273 275 276 276 277 280 281 281 282 284 286 288 287 283 282 283 284 286 286 nan nan nan nan nan nan nan nan nan nan nan nan nan nan nan nan nan 313 nan nan nan nan nan nan nan nan nan nan nan nan nan nan nan nan nan nan nan nan nan nan nan nan nan nan nan nan nan nan nan nan nan nan nan
260 263 265 263 263 265 267 268 267 266 265 264 266 270 274 273 273 275 277 279 281 283 285 288 286 283 283 284 285 284 285 288 301 302 301 nan nan nan nan nan nan nan nan nan nan nan nan nan nan nan nan nan nan nan nan nan nan nan nan nan nan nan nan nan nan nan nan nan nan nan nan nan nan nan nan nan nan nan nan nan nan nan nan nan nan
257 260 260 259 262 266 267 269 267 265 264 266 268 269 270 271 272 273 275 278 279 282 287 289 285 282 280 282 283 283 284 292 302 303 303 nan nan 296 294 nan nan nan nan nan nan nan nan nan nan nan nan nan nan nan nan nan nan nan nan nan nan nan nan nan nan nan nan nan nan nan nan nan nan nan nan nan nan nan nan nan nan nan nan nan nan
254 254 254 258 261 263 264 268 268 264 265 266 266 267 270 271 271 273 277 276 276 283 288 285 284 283 283 283 281 279 281 293 301 304 nan nan nan 298 295 297 299 300 nan nan nan nan nan nan nan nan nan nan nan nan nan nan nan nan nan nan nan nan nan nan nan nan nan nan nan nan nan nan nan nan nan nan nan nan nan nan nan nan nan nan nan
247 249 251 254 257 259 263 267 268 266 264 264 265 269 271 271 270 268 271 276 281 284 286 289 287 287 285 284 285 283 281 290 300 304 306 nan nan nan 296 298 300 302 302 nan nan nan nan nan nan nan nan nan nan nan nan nan nan nan nan nan nan nan nan nan nan nan nan nan nan nan nan nan nan nan nan nan nan nan nan nan nan nan nan nan nan
244 245 246 248 252 256 260 265 267 264 263 266 267 269 269 266 267 266 267 274 280 285 289 288 288 289 287 284 281 282 280 291 299 305 nan nan nan nan 296 298 300 nan nan nan nan nan nan nan nan nan nan nan nan nan nan nan nan nan nan nan nan nan nan nan nan nan nan nan nan nan nan nan nan nan nan nan nan nan nan nan nan nan nan nan nan
246 244 243 245 250 254 258 261 264 263 260 261 267 270 268 267 267 262 262 267 273 279 282 284 288 289 287 283 281 283 280 293 299 305 305 nan nan 297 297 298 300 nan nan nan nan nan nan nan nan nan nan nan nan nan nan nan nan nan nan nan nan nan nan nan nan nan nan nan nan nan nan nan nan nan nan nan nan nan nan nan nan nan nan nan nan
252 250 247 246 248 251 255 258 260 262 262 260 262 266 265 262 258 259 264 269 276 279 283 284 283 286 286 283 281 279 278 292 300 303 303 304 300 294 296 297 300 nan nan nan nan nan nan nan nan nan nan nan nan nan nan nan nan nan nan nan nan nan nan nan nan nan nan nan nan nan nan nan nan nan nan nan nan nan nan nan nan nan nan nan nan
258 255 252 250 249 249 253 258 258 256 256 261 263 262 260 256 257 258 264 269 273 277 278 274 272 274 277 278 278 277 276 288 300 301 303 305 299 295 296 nan nan nan nan nan nan nan nan nan nan nan nan nan nan nan nan nan nan nan nan nan nan nan nan nan nan nan nan nan nan nan nan nan nan nan nan nan nan nan nan nan nan nan nan nan nan
263 260 256 252 249 248 249 253 257 257 253 254 259 261 259 256 254 257 262 265 268 272 276 278 278 277 275 272 270 274 274 282 297 302 305 305 300 299 nan nan nan nan nan nan nan nan nan nan nan nan nan nan nan nan nan nan nan nan nan nan nan nan nan nan nan nan nan nan nan nan nan nan nan nan nan nan nan nan nan nan nan nan nan nan nan
264 257 255 252 248 248 250 252 253 257 259 255 251 254 254 253 253 255 256 264 271 276 279 279 277 275 275 275 276 273 273 277 295 307 309 308 306 303 302 nan nan nan nan nan nan nan nan nan nan nan nan nan nan nan nan nan nan nan nan nan nan nan nan nan nan nan nan nan nan nan nan nan nan nan nan nan nan nan nan nan nan nan nan nan nan
254 251 254 254 249 251 252 253 254 253 255 256 257 256 257 258 256 256 261 266 269 270 275 276 276 277 278 278 275 270 270 281 294 307 309 311 312 308 nan 305 305 305 306 nan nan nan nan nan nan nan nan nan nan nan nan nan nan nan nan nan nan nan nan nan nan nan nan nan nan nan nan nan nan nan nan nan nan nan nan nan nan nan nan nan nan
256 254 256 252 249 251 253 252 253 251 251 252 254 257 256 258 259 260 260 266 274 278 282 282 281 279 274 273 274 nan 264 284 292 304 309 313 314 313 nan 306 306 nan nan nan nan nan nan nan nan nan nan nan nan nan nan nan nan nan nan nan nan nan nan nan nan nan nan nan nan nan nan nan nan nan nan nan nan nan nan nan nan nan nan nan nan
258 256 253 248 247 250 252 253 249 246 250 251 254 255 256 257 259 260 261 265 273 278 282 282 280 278 276 271 268 265 nan 278 306 308 312 315 317 314 311 306 nan nan nan nan nan nan nan nan nan nan nan nan nan nan nan nan nan nan nan nan nan nan nan nan nan nan nan nan nan nan nan nan nan nan nan nan nan nan nan nan nan nan nan nan nan
262 257 252 246 246 249 252 253 252 249 251 251 252 256 257 258 261 261 264 267 270 273 278 281 281 282 278 nan 268 nan nan nan 303 312 308 314 314 313 311 310 nan nan nan nan nan nan nan nan nan nan nan nan nan nan nan nan nan nan nan nan nan nan nan nan nan nan nan nan nan nan nan nan nan nan nan nan nan nan nan nan nan nan nan nan nan
251 249 250 248 247 250 252 252 252 250 251 253 254 255 255 254 257 259 265 268 271 275 278 281 284 281 275 275 nan nan nan 276 293 303 309 312 313 313 313 nan nan nan nan nan nan nan nan nan nan nan nan nan nan nan nan nan nan nan nan nan nan nan nan nan nan nan nan nan nan nan nan nan nan nan nan nan nan nan nan nan nan nan nan nan nan
247 247 248 254 257 258 259 259 259 255 253 252 256 258 260 257 257 259 263 267 271 273 273 277 280 277 273 273 273 nan nan 283 293 296 300 307 308 nan nan nan nan nan nan nan nan nan nan nan nan nan nan nan nan nan nan nan nan nan nan nan nan nan nan nan nan nan nan nan nan nan nan nan nan nan nan nan nan nan nan nan nan nan nan nan nan
246 250 260 265 268 269 272 268 264 259 257 256 257 258 259 260 262 266 267 268 268 267 270 275 278 272 nan 276 278 278 284 290 291 291 294 298 301 nan nan nan nan nan nan nan nan nan nan nan nan nan nan nan nan nan nan nan nan nan nan nan nan nan nan nan nan nan nan nan nan nan nan nan nan nan nan nan nan nan nan nan nan nan nan nan nan
254 257 261 257 254 263 274 285 283 271 266 263 261 259 260 264 266 266 266 267 267 266 271 274 272 nan nan 275 281 285 289 289 290 294 296 298 299 nan nan nan nan nan nan nan nan nan nan nan nan nan nan nan nan nan nan nan nan nan nan nan nan nan nan nan nan nan nan nan nan nan nan nan nan nan nan nan nan nan nan nan nan nan nan nan nan
255 257 259 260 261 263 270 276 277 272 265 262 261 263 265 263 262 258 255 265 276 281 283 281 277 272 274 283 288 289 286 290 297 293 295 298 300 302 305 308 nan nan nan nan nan nan nan nan nan nan nan nan nan nan nan nan nan nan nan nan nan nan nan nan nan nan nan nan nan nan nan nan nan nan nan nan nan nan nan nan nan nan nan nan nan
261 263 262 264 265 264 265 269 270 266 259 255 253 244 236 244 250 258 259 264 271 276 281 281 279 278 nan 290 293 296 300 298 285 290 296 300 305 nan nan 311 nan nan nan nan nan nan nan nan nan nan nan nan nan nan nan nan nan nan nan nan nan nan nan nan nan nan nan nan nan nan nan nan nan nan nan nan nan nan nan nan nan nan nan nan nan
258 256 257 259 262 265 265 266 265 263 256 249 245 245 239 231 236 246 252 261 267 272 277 272 279 285 287 285 279 267 266 277 292 nan 298 304 nan nan nan nan nan nan nan nan nan nan nan nan nan nan nan nan nan nan nan nan nan nan nan nan nan nan nan nan nan nan nan nan nan nan nan nan nan nan nan nan nan nan nan nan nan nan nan nan nan
252 256 262 262 260 255 258 262 265 264 259 252 246 243 238 235 229 230 246 258 262 271 277 278 283 283 282 278 277 269 279 288 293 298 302 304 308 nan nan nan nan nan nan nan nan nan nan nan nan nan nan nan nan nan nan nan nan nan nan nan nan nan nan nan nan nan nan nan nan nan nan nan nan nan nan nan nan nan nan nan nan nan nan nan nan
256 257 256 254 257 262 266 264 261 262 259 251 242 237 237 235 239 238 229 239 256 268 270 271 276 279 278 281 288 287 286 290 nan nan nan 307 308 310 nan nan nan nan nan nan nan nan nan nan nan nan nan nan nan nan nan nan nan nan nan nan nan nan nan nan nan nan nan nan nan nan nan nan nan nan nan nan nan nan nan nan nan nan nan nan nan
260 260 259 262 264 265 268 271 271 264 255 249 241 235 228 233 240 246 250 248 242 240 246 260 272 275 274 278 280 278 284 291 296 nan nan nan nan nan nan nan nan nan nan nan nan nan nan nan nan nan nan nan nan nan nan nan nan nan nan nan nan nan nan nan nan nan nan nan nan nan nan nan nan nan nan nan nan nan nan nan nan nan nan nan nan
257 261 268 267 266 266 267 269 268 262 251 242 237 230 230 233 241 250 256 260 260 261 261 253 259 274 273 276 281 nan nan nan nan nan nan nan nan nan nan nan nan nan nan nan nan nan nan nan nan nan nan nan nan nan nan nan nan nan nan nan nan nan nan nan nan nan nan nan nan nan nan nan nan nan nan nan nan nan nan nan nan nan nan nan nan
262 264 269 272 266 265 265 264 259 nan 245 236 229 227 230 237 243 245 247 249 255 258 256 259 262 264 275 277 282 285 nan nan nan nan nan nan nan nan nan nan nan nan nan nan nan nan nan nan nan nan nan nan nan nan nan nan nan nan nan nan nan nan nan nan nan nan nan nan nan nan nan nan nan nan nan nan nan nan nan nan nan nan nan nan nan
264 nan nan nan nan 253 249 nan nan 234 232 229 228 230 232 237 242 245 248 251 254 256 260 261 261 258 259 265 275 nan nan nan nan nan nan nan nan nan nan nan nan nan nan nan nan nan nan nan nan nan nan nan nan nan nan nan nan nan nan nan nan nan nan nan nan nan nan nan nan nan nan nan nan nan nan nan nan nan nan nan nan nan nan nan nan
nan nan nan 262 259 257 248 236 232 234 235 234 232 235 240 243 247 250 252 255 259 263 264 264 265 269 271 270 271 nan nan nan nan nan nan nan nan nan nan nan nan nan nan nan nan nan nan nan nan nan nan nan nan nan nan nan nan nan nan nan nan nan nan nan nan nan nan nan nan nan nan nan nan nan nan nan nan nan nan nan nan nan nan nan nan
nan nan nan 261 255 249 241 236 234 235 235 235 236 238 241 246 249 251 254 256 259 260 259 263 265 268 270 271 275 277 nan 282 287 nan nan nan nan nan nan nan nan nan nan nan nan nan nan nan nan nan nan nan nan nan nan nan nan nan nan nan nan nan nan nan nan nan nan nan nan nan nan nan nan nan nan nan nan nan nan nan nan nan nan nan nan
nan 240 243 249 241 236 235 234 235 234 235 238 238 239 241 246 251 253 255 257 258 259 261 264 266 268 269 273 276 281 285 288 290 nan nan nan nan nan nan nan nan nan nan nan nan nan nan nan nan nan nan nan nan nan nan nan nan nan nan nan nan nan nan nan nan nan nan nan nan nan nan nan nan nan nan nan nan nan nan nan nan nan nan nan nan
nan 227 nan 233 235 234 233 234 231 231 233 235 237 239 242 245 247 248 252 255 257 260 263 265 268 269 274 281 286 289 288 nan nan nan nan nan nan nan nan nan nan nan nan nan nan nan nan nan nan nan nan nan nan nan nan nan nan nan nan nan nan nan nan nan nan nan nan nan nan nan nan nan nan nan nan nan nan nan nan nan nan nan nan nan nan
220 221 221 224 231 235 238 233 231 232 234 235 240 243 245 246 248 251 254 257 258 262 264 267 268 271 277 286 290 293 nan nan nan nan nan nan nan nan nan nan nan nan nan nan nan nan nan nan nan nan nan nan nan nan nan nan nan nan nan nan nan nan nan nan nan nan nan nan nan nan nan nan nan nan nan nan nan nan nan nan nan nan nan nan nan
236 230 229 231 236 240 241 240 238 240 240 242 243 243 246 248 249 251 254 257 261 264 266 268 268 270 275 282 287 289 nan nan nan nan nan nan nan nan nan nan nan nan nan nan nan nan nan nan nan nan nan nan nan nan nan nan nan nan nan nan nan nan nan nan nan nan nan nan nan nan nan nan nan nan nan nan nan nan nan nan nan nan nan nan nan
244 243 239 nan 236 236 235 237 238 239 241 242 245 246 248 249 251 253 255 257 260 263 264 266 269 272 nan nan nan nan nan nan nan nan nan nan nan nan nan nan nan nan nan nan nan nan nan nan nan nan nan nan nan nan nan nan nan nan nan nan nan nan nan nan nan nan nan nan nan nan nan nan nan nan nan nan nan nan nan nan nan nan nan nan nan
242 242 243 239 235 235 nan nan nan 241 243 243 nan nan nan nan nan 254 256 257 259 261 263 268 272 nan nan nan nan nan nan nan nan nan nan nan nan nan nan nan nan nan nan nan nan nan nan nan nan nan nan nan nan nan nan nan nan nan nan nan nan nan nan nan nan nan nan nan nan nan nan nan nan nan nan nan nan nan nan nan nan nan nan nan nan
nan nan 236 238 238 237 239 nan nan nan nan nan nan nan nan nan nan nan nan nan nan nan nan nan nan nan nan nan nan nan nan nan nan nan nan nan nan nan nan nan nan nan nan nan nan nan nan nan nan nan nan nan nan nan nan nan nan nan nan nan nan nan nan nan nan nan nan nan nan nan nan nan nan nan nan nan nan nan nan nan nan nan nan nan nan
243 242 nan 242 241 240 242 245 nan nan nan nan nan nan nan nan nan nan nan nan nan nan nan nan nan nan nan nan nan nan nan nan nan nan nan nan nan nan nan nan nan nan nan nan nan nan nan nan nan nan nan nan nan nan nan nan nan nan nan nan nan nan nan nan nan nan nan nan nan nan nan nan nan nan nan nan nan nan nan nan nan nan nan nan nan
nan nan nan nan 247 nan 246 nan nan nan nan nan nan nan nan nan nan nan nan nan nan nan nan nan nan nan nan nan nan nan nan nan nan nan nan nan nan nan nan nan nan nan nan nan nan nan nan nan nan nan nan nan nan nan nan nan nan nan nan nan nan nan nan nan nan nan nan nan nan nan nan nan nan nan nan nan nan nan nan nan nan nan nan nan nan
nan nan nan nan nan nan nan nan nan nan nan nan nan nan nan nan nan nan nan nan nan nan nan nan nan nan nan nan nan nan nan nan nan nan nan nan nan nan nan nan nan nan nan nan nan nan nan nan nan nan nan nan nan nan nan nan nan nan nan nan nan nan nan nan nan nan nan nan nan nan nan nan nan nan nan nan nan nan nan nan nan nan nan nan nan
nan nan nan nan nan nan nan nan nan nan nan nan nan nan nan nan nan nan nan nan nan nan nan nan nan nan nan nan nan nan nan nan nan nan nan nan nan nan nan nan nan nan nan nan nan nan nan nan nan nan nan nan nan nan nan nan nan nan nan nan nan nan nan nan nan nan nan nan nan nan nan nan nan nan nan nan nan nan nan nan nan nan nan nan nan
nan nan nan nan nan nan nan nan nan nan nan nan nan nan nan nan nan nan nan nan nan nan nan nan nan nan nan nan nan nan nan nan nan nan nan nan nan nan nan nan nan nan nan nan nan nan nan nan nan nan nan nan nan nan nan nan nan nan nan nan nan nan nan nan nan nan nan nan nan nan nan nan nan nan nan nan nan nan nan nan nan nan nan nan nan